Latest Weather Observations for Middle Point

IDD60901

Issued at 12:45 pm CST Friday 29 August 2014 (issued every 10 minutes, with the page automatically refreshed every 10 minutes)

About weather observations | Map of Darwin area stations | Latest observations for Darwin area | Other Formats
Station Details ID: 014041 Name: MIDDLE POINT Lat: -12.61 Lon: 131.30 Height: 14.1 m
Data from the previous 72 hours. | See also: Recent months at Middle Point
Date/Time
CST
Tmp

°C
App
Tmp
°C
Dew
Point
°C
Rel
Hum
%
Delta-T

°C
Wind Press
QNH
hPa
Press
MSL
hPa
Rain
since
9 am
mm
Dir
 
Spd
km/h
Gust
km/h
Spd
kts
Gust
kts
29/12:30pm 32.1 26.6 -2.0 11 16.0 SE 17 30 9 16 1014.1 1014.0 0.0
29/12:00pm 31.1 27.0 2.3 16 14.4 SE 13 19 7 10 1014.6 1014.5 0.0
29/11:30am 30.7 26.1 3.7 18 13.8 E 17 28 9 15 1015.1 1015.0 0.0
29/11:00am 30.1 25.6 4.0 19 13.4 ESE 17 30 9 16 1015.5 1015.4 0.0
29/10:30am 28.3 25.9 8.6 29 10.8 SE 11 17 6 9 1015.8 1015.7 0.0
29/10:00am 27.0 26.7 13.4 43 8.0 S 7 9 4 5 1016.1 1016.0 0.0
29/09:30am 25.2 25.2 12.4 45 7.4 SSE 4 11 2 6 1016.2 1016.1 0.0
29/09:00am 22.6 22.2 12.3 52 5.8 SSE 6 7 3 4 1016.0 1015.9 0.0
29/08:30am 19.6 19.2 12.4 63 4.0 S 6 7 3 4 1016.0 1015.9 0.0
29/08:00am 16.3 17.2 13.0 81 1.8 CALM 0 0 0 0 1015.7 1015.6 0.0
29/07:30am 13.3 13.4 11.4 88 1.0 SSE 2 4 1 2 1015.5 1015.4 0.0
29/07:00am 12.1 12.2 10.0 87 1.1 CALM 0 0 0 0 1015.2 1015.1 0.0
29/06:30am 12.0 12.1 10.1 88 1.0 CALM 0 0 0 0 1014.9 1014.8 0.0
29/06:00am 11.6 11.6 9.9 89 0.9 W 0 0 0 0 1014.5 1014.4 0.0
29/05:30am 11.6 11.4 9.2 85 1.2 CALM 0 0 0 0 1014.1 1014.0 0.0
29/05:00am 12.3 12.4 10.0 86 1.2 CALM 0 0 0 0 1013.9 1013.8 0.0
29/04:30am 11.6 10.4 9.5 87 1.1 W 6 7 3 4 1013.8 1013.7 0.0
29/04:00am 12.8 12.1 10.0 83 1.4 SW 4 6 2 3 1013.6 1013.5 0.0
29/03:30am 12.5 11.3 10.2 86 1.2 SW 7 9 4 5 1013.8 1013.7 0.0
29/03:00am 12.2 12.3 10.1 87 1.1 CALM 0 0 0 0 1013.7 1013.6 0.0
29/02:30am 12.2 12.1 9.4 83 1.4 CALM 0 0 0 0 1013.8 1013.7 0.0
29/02:00am 13.5 13.0 9.2 75 2.2 E 2 6 1 3 1013.9 1013.8 0.0
29/01:30am 14.4 14.1 10.2 76 2.2 ENE 2 9 1 5 1014.2 1014.1 0.0
29/01:00am 14.7 14.8 11.5 81 1.7 S 2 7 1 4 1014.1 1014.0 0.0
29/12:30am 13.5 13.3 9.2 75 2.2 CALM 0 0 0 0 1014.1 1014.0 0.0
29/12:00am 13.5 12.8 8.6 72 2.5 SW 2 4 1 2 1014.3 1014.2 0.0
 
Date/Time
CST
Tmp

°C
App
Tmp
°C
Dew
Point
°C
Rel
Hum
%
Delta-T

°C
Wind Press
QNH
hPa
Press
MSL
hPa
Rain
since
9 am
mm
Dir
 
Spd
km/h
Gust
km/h
Spd
kts
Gust
kts
28/11:30pm 15.7 15.1 8.9 64 3.5 SW 2 4 1 2 1014.4 1014.3 0.0
28/11:00pm 15.3 14.3 9.0 66 3.2 WSW 4 4 2 2 1014.5 1014.4 0.0
28/10:30pm 14.8 13.1 8.5 66 3.2 WSW 7 7 4 4 1014.4 1014.3 0.0
28/10:00pm 15.3 13.6 8.3 63 3.5 W 7 9 4 5 1014.2 1014.1 0.0
28/09:30pm 16.0 14.8 8.0 59 4.0 SW 4 7 2 4 1013.9 1013.8 0.0
28/09:00pm 15.6 13.9 7.4 58 4.1 WSW 6 7 3 4 1013.7 1013.6 0.0
28/08:30pm 17.2 16.3 7.8 54 4.8 NNW 2 4 1 2 1013.5 1013.4 0.0
28/08:00pm 17.5 15.5 6.1 47 5.6 WNW 6 9 3 5 1013.3 1013.2 0.0
28/07:30pm 21.2 19.0 6.3 38 7.5 N 7 9 4 5 1012.7 1012.6 0.0
28/07:00pm 22.0 19.2 5.0 33 8.4 N 9 13 5 7 1012.3 1012.2 0.0
28/06:30pm 24.8 21.5 4.5 27 10.1 N 11 15 6 8 1012.0 1011.9 0.0
28/06:00pm 28.2 24.5 4.5 22 12.1 N 13 17 7 9 1011.6 1011.5 0.0
28/05:30pm 30.4 26.3 4.2 19 13.5 N 15 20 8 11 1011.4 1011.3 0.0
28/05:00pm 31.9 27.2 1.1 14 15.2 NNE 15 20 8 11 1011.1 1011.0 0.0
28/04:30pm 33.2 30.0 -3.9 9 17.0 ESE 4 7 2 4 1010.9 1010.8 0.0
28/04:00pm 33.2 28.5 -5.5 8 17.2 ENE 11 22 6 12 1011.0 1010.9 0.0
28/03:30pm 33.2 29.2 -5.5 8 17.3 E 7 17 4 9 1011.1 1011.0 0.0
28/03:00pm 33.8 28.2 -6.8 7 17.8 ESE 15 22 8 12 1011.3 1011.2 0.0
28/02:30pm 32.9 27.2 -7.4 7 17.4 E 15 24 8 13 1011.7 1011.6 0.0
28/02:00pm 33.3 26.9 -5.4 8 17.3 SE 20 26 11 14 1011.9 1011.8 0.0
28/01:30pm 32.7 27.3 -4.3 9 16.8 SE 15 24 8 13 1012.5 1012.4 0.0
28/01:00pm 32.7 27.3 -4.3 9 16.7 E 15 22 8 12 1012.9 1012.8 0.0
28/12:30pm 32.6 26.0 -2.9 10 16.4 SE 22 30 12 16 1013.5 1013.4 0.0
28/12:00pm 31.4 24.9 -2.6 11 15.7 E 22 32 12 17 1014.2 1014.1 0.0
28/11:30am 30.9 24.3 -3.0 11 15.5 ESE 22 32 12 17 1014.7 1014.6 0.0
28/11:00am 29.1 21.9 -2.1 13 14.3 ESE 26 37 14 20 1015.2 1015.1 0.0
28/10:30am 29.1 23.0 -2.1 13 14.3 ESE 20 28 11 15 1015.4 1015.3 0.0
28/10:00am 27.7 21.9 -0.4 16 13.1 ESE 20 28 11 15 1015.7 1015.6 0.0
28/09:30am 25.4 23.6 8.0 33 9.3 SE 7 11 4 6 1015.8 1015.7 0.0
28/09:00am 23.5 22.3 11.5 47 6.7 SE 9 11 5 6 1015.7 1015.6 0.0
28/08:30am 19.5 19.5 13.7 69 3.3 S 6 9 3 5 1015.7 1015.6 0.0
28/08:00am 15.7 16.4 14.4 92 0.7 S 4 6 2 3 1015.4 1015.3 0.0
28/07:30am 11.1 10.1 10.2 94 0.5 S 6 7 3 4 1015.1 1015.0 0.0
28/07:00am 10.2 9.3 9.1 93 0.5 S 4 6 2 3 1014.8 1014.7 0.0
28/06:30am 10.8 10.7 9.6 92 0.6 CALM 0 0 0 0 1014.4 1014.3 0.0
28/06:00am 11.8 12.0 10.7 93 0.6 CALM 0 0 0 0 1014.1 1014.0 0.0
28/05:30am 11.2 10.4 9.5 89 0.9 SSW 4 4 2 2 1013.7 1013.6 0.0
28/05:00am 11.8 11.5 10.0 89 0.9 S 2 4 1 2 1013.6 1013.5 0.0
28/04:30am 12.0 12.0 9.7 86 1.2 CALM 0 0 0 0 1013.6 1013.5 0.0
28/04:00am 12.4 12.4 9.8 84 1.3 CALM 0 2 0 1 1013.6 1013.5 0.0
28/03:30am 13.2 13.3 10.2 82 1.6 CALM 0 0 0 0 1013.6 1013.5 0.0
28/03:00am 13.0 12.5 10.7 86 1.2 W 4 7 2 4 1013.7 1013.6 0.0
28/02:30am 12.8 12.4 9.6 81 1.6 W 2 7 1 4 1013.8 1013.7 0.0
28/02:00am 13.5 13.6 10.1 80 1.8 CALM 0 0 0 0 1014.1 1014.0 0.0
28/01:30am 13.9 13.9 9.7 76 2.2 CALM 0 0 0 0 1014.5 1014.4 0.0
28/01:00am 14.6 14.1 9.4 71 2.7 E 2 6 1 3 1014.7 1014.6 0.0
28/12:30am 15.7 15.8 10.0 69 3.0 CALM 0 0 0 0 1014.8 1014.7 0.0
28/12:00am 16.7 16.5 10.5 67 3.3 WSW 2 4 1 2 1014.7 1014.6 0.0
 
Date/Time
CST
Tmp

°C
App
Tmp
°C
Dew
Point
°C
Rel
Hum
%
Delta-T

°C
Wind Press
QNH
hPa
Press
MSL
hPa
Rain
since
9 am
mm
Dir
 
Spd
km/h
Gust
km/h
Spd
kts
Gust
kts
27/11:30pm 15.4 14.1 9.1 66 3.2 W 6 7 3 4 1014.4 1014.3 0.0
27/11:00pm 15.2 13.8 8.9 66 3.2 W 6 7 3 4 1014.2 1014.1 0.0
27/10:30pm 16.3 15.0 9.3 63 3.6 WNW 6 7 3 4 1014.1 1014.0 0.0
27/10:00pm 15.5 15.5 9.8 69 3.0 CALM 0 0 0 0 1013.8 1013.7 0.0
27/09:30pm 16.2 15.5 8.7 61 3.8 NNE 2 2 1 1 1013.8 1013.7 0.0
27/09:00pm 16.6 15.1 9.1 61 3.9 NNE 7 9 4 5 1013.6 1013.5 0.0
27/08:30pm 17.6 17.2 8.2 54 4.8 CALM 0 4 0 2 1013.1 1013.0 0.0
27/08:00pm 20.0 19.5 8.0 46 6.2 CALM 0 0 0 0 1012.7 1012.6 0.0
27/07:30pm 21.7 19.9 7.2 39 7.5 N 6 6 3 3 1012.2 1012.1 0.0
27/07:00pm 22.8 20.0 5.3 32 8.8 N 9 9 5 5 1011.7 1011.6 0.0
27/06:58pm 23.0 20.6 5.4 32 8.8 N 7 9 4 5 1011.7 1011.6 0.0
27/06:30pm 28.2 26.8 5.7 24 11.7 N 2 4 1 2 1011.3 1011.2 0.0
27/06:00pm 31.4 28.2 0.7 14 15.0 ESE 7 13 4 7 1010.7 1010.7 0.0
27/05:30pm 32.6 28.1 -0.5 12 16.0 ESE 13 20 7 11 1010.5 1010.5 0.0
27/05:00pm 33.1 27.9 -0.1 12 16.2 E 17 26 9 14 1010.4 1010.4 0.0
27/04:30pm 33.8 29.0 0.5 12 16.5 E 15 26 8 14 1010.3 1010.3 0.0
27/04:00pm 33.3 28.6 1.2 13 16.0 ESE 15 26 8 14 1010.3 1010.3 0.0
27/03:30pm 33.0 28.3 0.9 13 15.9 ESE 15 26 8 14 1010.4 1010.4 0.0
27/03:00pm 33.8 27.9 1.6 13 16.2 ESE 22 30 12 16 1010.6 1010.6 0.0
27/02:30pm 33.1 27.5 1.0 13 15.9 SE 20 33 11 18 1011.2 1011.1 0.0
27/02:00pm 32.9 27.4 0.9 13 15.8 ESE 19 32 10 17 1011.6 1011.5 0.0
27/01:30pm 32.8 27.3 0.8 13 15.8 ESE 19 32 10 17 1012.1 1012.0 0.0
27/01:00pm 32.4 26.5 1.5 14 15.4 ESE 22 33 12 18 1012.7 1012.6 0.0
27/12:30pm 32.2 26.4 2.3 15 15.1 E 22 37 12 20 1013.1 1013.0 0.0
27/12:00pm 31.4 25.4 3.4 17 14.3 E 24 35 13 19 1013.8 1013.7 0.0
27/11:30am 31.9 25.2 3.8 17 14.5 E 28 43 15 23 1014.1 1014.0 0.0
27/11:00am 30.3 24.6 6.9 23 12.6 ESE 26 39 14 21 1014.5 1014.4 0.0
27/10:30am 29.5 23.2 5.6 22 12.5 E 28 43 15 23 1015.0 1014.9 0.0
27/10:00am 28.9 24.7 7.5 26 11.5 E 19 24 10 13 1015.3 1015.2 0.0
27/09:30am 26.1 24.8 11.1 39 8.5 E 9 15 5 8 1015.4 1015.3 0.0
27/09:00am 22.9 22.0 12.5 52 5.9 ESE 9 15 5 8 1015.3 1015.2 0.0
27/08:30am 19.5 19.9 12.5 64 3.9 SSE 2 4 1 2 1015.1 1015.0 0.0
27/08:00am 15.6 16.6 13.1 85 1.4 CALM 0 0 0 0 1014.7 1014.6 0.0
27/07:30am 12.6 13.0 11.3 92 0.7 CALM 0 0 0 0 1014.2 1014.1 0.0
27/07:00am 11.7 11.8 10.3 91 0.7 CALM 0 0 0 0 1013.9 1013.8 0.0
27/06:30am 12.2 12.4 10.4 89 0.9 CALM 0 2 0 1 1013.8 1013.7 0.0
27/06:00am 13.1 12.3 11.2 88 1.0 SSE 6 9 3 5 1013.5 1013.4 0.0
27/05:30am 12.8 11.4 11.0 89 0.9 SE 9 13 5 7 1013.1 1013.0 0.0
27/05:00am 13.1 13.5 11.2 88 1.0 CALM 0 4 0 2 1012.5 1012.4 0.0
27/04:30am 13.2 13.2 11.1 87 1.1 NNW 2 4 1 2 1012.4 1012.3 0.0
27/04:00am 13.1 12.2 11.3 89 1.0 N 7 9 4 5 1012.5 1012.4 0.0
27/03:30am 12.7 11.8 10.8 88 1.0 N 6 7 3 4 1012.5 1012.4 0.0
27/03:00am 12.9 12.0 10.8 87 1.1 N 6 7 3 4 1012.6 1012.5 0.0
27/02:30am 12.4 11.3 10.1 86 1.2 WNW 6 6 3 3 1012.9 1012.8 0.0
27/02:00am 15.2 15.6 11.2 77 2.1 CALM 0 0 0 0 1013.0 1012.9 0.0
27/01:30am 16.8 15.9 12.7 77 2.3 ENE 9 15 5 8 1013.5 1013.4 0.0
27/01:00am 16.8 16.4 12.5 76 2.4 S 6 7 3 4 1013.1 1013.0 0.0
27/12:30am 17.4 17.2 13.1 76 2.4 SW 6 7 3 4 1013.0 1012.9 0.0
27/12:00am 17.1 16.8 12.8 76 2.4 WSW 6 9 3 5 1013.2 1013.1 0.0
 
Date/Time
CST
Tmp

°C
App
Tmp
°C
Dew
Point
°C
Rel
Hum
%
Delta-T

°C
Wind Press
QNH
hPa
Press
MSL
hPa
Rain
since
9 am
mm
Dir
 
Spd
km/h
Gust
km/h
Spd
kts
Gust
kts
26/11:30pm 17.7 17.2 12.8 73 2.7 SW 7 9 4 5 1013.2 1013.1 0.0
26/11:00pm 18.4 18.3 13.3 72 2.9 SW 6 7 3 4 1013.5 1013.4 0.0
26/10:30pm 18.0 17.4 12.2 69 3.2 W 7 7 4 4 1013.3 1013.2 0.0
26/10:00pm 16.6 14.4 9.5 63 3.7 W 11 13 6 7 1013.2 1013.1 0.0
26/09:30pm 15.2 13.3 9.1 67 3.1 W 9 13 5 7 1012.9 1012.8 0.0
26/09:00pm 16.7 15.8 9.1 61 3.9 WNW 4 4 2 2 1012.7 1012.6 0.0
26/08:30pm 18.1 17.6 9.2 56 4.7 WNW 2 4 1 2 1012.3 1012.2 0.0
26/08:00pm 19.8 18.8 8.8 49 5.8 W 4 6 2 3 1012.2 1012.1 0.0
26/07:30pm 19.5 17.6 6.6 43 6.5 W 6 9 3 5 1011.8 1011.7 0.0
26/07:29pm 19.6 17.6 6.4 42 6.6 W 6 9 3 5 1011.8 1011.7 0.0
26/07:00pm 24.6 22.5 5.9 30 9.6 N 6 7 3 4 1011.3 1011.2 0.0
26/06:30pm 26.7 23.9 3.2 22 11.6 ENE 7 17 4 9 1010.7 1010.7 0.0
26/06:00pm 30.8 27.7 1.2 15 14.5 ESE 7 9 4 5 1010.4 1010.4 0.0
26/05:30pm 31.9 27.5 0.1 13 15.4 ESE 13 20 7 11 1010.3 1010.3 0.0
26/05:00pm 32.9 28.6 0.9 13 15.8 ESE 13 22 7 12 1010.2 1010.2 0.0
26/04:30pm 33.2 29.7 1.1 13 16.0 SE 9 13 5 7 1010.3 1010.3 0.0
26/04:00pm 33.3 28.6 1.2 13 16.0 ESE 15 24 8 13 1010.6 1010.6 0.0
26/03:30pm 33.2 28.7 0.0 12 16.2 SE 13 22 7 12 1011.1 1011.0 0.0
26/03:00pm 32.9 28.2 0.9 13 15.8 ESE 15 26 8 14 1011.4 1011.3 0.0
26/02:30pm 33.0 27.4 0.9 13 15.9 SE 20 26 11 14 1011.9 1011.8 0.0
26/02:00pm 32.0 25.9 0.2 13 15.4 ESE 22 28 12 15 1012.3 1012.2 0.0
26/01:30pm 32.4 26.8 1.5 14 15.4 E 20 30 11 16 1012.6 1012.5 0.0
26/01:00pm 31.8 25.0 1.0 14 15.1 SE 26 39 14 21 1013.2 1013.1 0.0

Latest Capital City Observations: Canberra | Sydney | Melbourne | Brisbane | Adelaide | Perth | Hobart | Darwin

Other Formats:

Comma delimited format used in spreadsheet applications
http://www.bom.gov.au/fwo/IDD60901/IDD60901.95121.axf

JavaScript Object Notation format (JSON) in row-major order
http://www.bom.gov.au/fwo/IDD60901/IDD60901.95121.json